Regional Weather Roundup
Issued by NWS Jackson, KY

Home | Current Version | Previous Version | Text Only | Print | Product List | Glossary On
Versions: 1 2 3 4 5 6 7 8 9 10 11 12 13 14 15 16 17 18 19 20 21 22 23 24 25 26 27 28 29 30 31 32 33 34 35 36 37 38 39 40 41 42 43 44 45 46 47 48 49 50
000
ASUS43 KJKL 240310
RWRJKL

EAST KENTUCKY HOURLY WEATHER ROUNDUP
NATIONAL WEATHER SERVICE JACKSON KY
1100 PM EDT SAT MAY 23 2015

NOTE: "FAIR" INDICATES FEW OR NO CLOUDS BELOW 12,000 FEET WITH
NO SIGNIFICANT WEATHER AND/OR OBSTRUCTIONS TO VISIBILITY.

* THESE REPORTS ARE NOT UNDER NWS QUALITY CONTROL AND MAY NOT
  REPORT WEATHER SUCH AS PRECIPITATION AND FOG.

KYZ079-080-083-085-087-088-110-112-115-119-120-240400
...EASTERN KENTUCKY...

CITY           SKY/WX    TMP DP  RH WIND       PRES   REMARKS
JACKSON        CLEAR     67  47  48 CALM      30.32R
LONDON         PTCLDY    64  51  62 CALM      30.31R
SOMERSET*      PTCLDY    61  54  77 CALM      30.30S
MONTICELLO*    PTCLDY    59  55  86 CALM      30.32R
MIDDLESBORO*   CLEAR     61  55  79 CALM      30.33R
HARLAN APT*    CLEAR     61  52  72 CALM      30.33R
HAZARD APT*    CLEAR     61  54  77 CALM      30.32R
BLACK MTN*       N/A     57  46  67 CALM        N/A
PIKEVILLE APT* PTCLDY    68  50  52 E5        30.33R
BIG SANDY*     CLEAR     63  51  65 E3        30.33R
MOREHEAD APT*  CLEAR     68  46  45 VRB3      30.33R
$$

KYZ035-036-041-042-044-050-067-078-099-240400
...CENTRAL KENTUCKY...

CITY           SKY/WX    TMP DP  RH WIND       PRES   REMARKS
MT STERLING*   PTCLDY    68  50  52 SE6       30.32S
FLEMING/MASON* CLEAR     63  48  59 SE6       30.32R
DANVILLE*      CLEAR     61  54  77 CALM      30.29F
RICHMOND*      CLEAR     61  52  72 SE5       30.29S
LEXINGTON      PTCLDY    68  47  46 E6        30.29R
FRANKFORT      PTCLDY    63  50  62 CALM      30.27S
$$

KYZ091>093-OHZ055-061-077-WVZ005-015-034-035-042-240400
...SOUTHERN OHIO/WEST VIRGINIA...

CITY           SKY/WX    TMP DP  RH WIND       PRES   REMARKS
COVINGTON      PTCLDY    65  47  52 SE5       30.29R
COLUMBUS       CLEAR     64  43  46 SE5       30.31R
DAYTON         CLEAR     68  44  42 SE6       30.30S
WILMINGTON     CLEAR     63  43  48 SE5       30.31R
HUNTINGTON     CLEAR     59  51  75 CALM      30.31R
CHARLESTON     CLEAR     58  51  78 CALM      30.33R
PINEVILLE*     CLEAR     54  52  93 MISG      30.40S
BECKLEY        CLEAR     58  47  66 E3        30.39R
BLUEFIELD      CLEAR     65  41  41 S6        30.40R
$$

VAZ002-007-008-TNZ017-027-036-066-071-240400
...SOUTHWEST VIRGINIA/EAST TENNESSEE...

CITY           SKY/WX    TMP DP  RH WIND       PRES   REMARKS
WISE*          MOCLDY    61  41  48 CALM      30.39R
JONESVILLE*    PTCLDY    59  54  82 CALM      30.35R
ABINGDON*      CLEAR     62  47  56 CALM      30.37R
BRISTOL        PTCLDY    61  50  67 CALM      30.34R
KNOXVILLE      PTCLDY    69  55  60 CALM      30.29R
OAK RIDGE      CLEAR     67  57  70 CALM      30.31R
CROSSVILLE     PTCLDY    62  54  74 CALM      30.33R
NASHVILLE      PTCLDY    70  56  61 S3        30.24R
$$

...KEY TO REMARKS...
VSB - VISIBILITY IN MILES
WCI - WIND CHILL INDEX
HX  - HEAT INDEX

$$


USA.gov is the U.S. government's official web portal to all federal, state and local government web resources and services.